Back to catalog

STARLINK-35360

AliveCommunicationsVLEO
NORAD 66444·PAYLOAD·🇺🇸 United States

Launched Nov 11, 2025 from Cape Canaveral Space Force Station

Loading…

Next Passes (next 24 hours)

TLE

FreshSource: CelesTrak SupGP

Epoch: Sep 15, 2026, 03:46 UTC

1 66444C 25259Y   26258.15743056 -.00025938  00000+0 -93893-3 0  2582
2 66444  42.9999 283.9869 0001291 267.3758  28.5207 15.27610907    17

Track STARLINK-35360 in real time with AllMySat

Download on the App Store